Location: Saint Louis
(38.6272°N, 90.1978°W)
Time: 07:05:08
(UTC-05:00)

ISS - Pass Details

Date: 22 February 2013
Orbit: 401 x 404 km, 51.6° (Epoch: 29 July)

Event Time Altitude Azimuth Distance (km) Brightness Sun altitude
Rises 19:33:26 0° 317° (NW) 2,319 1.2 -21.6°
Reaches altitude 10° 19:35:49 10° 332° (NNW) 1,455 -0.1 -22.0°
Enters shadow 19:37:01 17° 350° (N) 1,105 -1.0 -22.3°
